| time (UTC) | temp F | wind direction | speed MPH | gust MPH | rain 1hr in | rain 24hr in | rain mn in | humidity % | barometer mb |
| 20260905234519 | 70 | 158 | 0.0 | 2.0 | 0.00 | 0.00 | 0.00 | 88 | 1015.0 |
| 20260905233539 | 70 | 0.0 | 0.0 | 0.00 | 0.00 | 0.00 | 87 | 1015.0 | |
| 20260905232519 | 71 | 158 | 1.0 | 4.0 | 0.00 | 0.00 | 0.00 | 87 | 1015.1 |
| 20260905231539 | 71 | 158 | 0.0 | 2.0 | 0.00 | 0.00 | 0.00 | 87 | 1015.2 |
| 20260905230519 | 72 | 160 | 2.0 | 4.0 | 0.00 | 0.00 | 0.00 | 87 | 1015.2 |
| 20260905225531 | 72 | 166 | 3.0 | 7.0 | 0.00 | 0.00 | 0.00 | 89 | 1015.3 |
| 20260905224518 | 71 | 179 | 2.0 | 4.0 | 0.00 | 0.00 | 0.00 | 89 | 1015.4 |
| 20260905223539 | 71 | 180 | 0.0 | 2.0 | 0.00 | 0.00 | 0.00 | 90 | 1015.6 |
| 20260905222539 | 71 | 0.0 | 0.0 | 0.00 | 0.00 | 0.00 | 88 | 1015.7 | |
| 20260905221531 | 71 | 180 | 1.0 | 2.0 | 0.00 | 0.00 | 0.00 | 87 | 1015.7 |
| 20260905220539 | 72 | 180 | 1.0 | 4.0 | 0.00 | 0.00 | 0.00 | 85 | 1015.8 |
| 20260905215519 | 72 | 180 | 2.0 | 4.0 | 0.00 | 0.00 | 0.00 | 84 | 1015.8 |
| 20260905214519 | 73 | 180 | 3.0 | 4.0 | 0.00 | 0.00 | 0.00 | 82 | 1015.8 |
| 20260905213519 | 73 | 182 | 4.0 | 7.0 | 0.00 | 0.00 | 0.00 | 80 | 1015.9 |
| 20260905212519 | 73 | 184 | 5.0 | 7.0 | 0.00 | 0.00 | 0.00 | 80 | 1015.9 |
| 20260905211519 | 73 | 182 | 4.0 | 7.0 | 0.00 | 0.00 | 0.00 | 81 | 1015.9 |
| 20260905210542 | 72 | 187 | 4.0 | 7.0 | 0.00 | 0.00 | 0.00 | 83 | 1015.9 |
| 20260905205519 | 72 | 194 | 4.0 | 7.0 | 0.00 | 0.00 | 0.00 | 87 | 1015.8 |
| 20260905204543 | 73 | 187 | 3.0 | 7.0 | 0.00 | 0.00 | 0.00 | 88 | 1015.9 |
| 20260905203559 | 73 | 189 | 4.0 | 7.0 | 0.00 | 0.00 | 0.00 | 87 | 1016.0 |
| 20260905202519 | 73 | 188 | 4.0 | 9.0 | 0.00 | 0.00 | 0.00 | 87 | 1015.9 |
| 20260905201519 | 73 | 190 | 4.0 | 7.0 | 0.00 | 0.00 | 0.00 | 87 | 1016.0 |
| 20260905200519 | 73 | 196 | 4.0 | 7.0 | 0.00 | 0.00 | 0.00 | 87 | 1016.0 |
| 20260905195519 | 73 | 186 | 4.0 | 9.0 | 0.00 | 0.00 | 0.00 | 86 | 1016.1 |
| 20260905194519 | 73 | 176 | 5.0 | 7.0 | 0.00 | 0.00 | 0.00 | 85 | 1016.1 |
| 20260905193519 | 73 | 168 | 5.0 | 9.0 | 0.00 | 0.00 | 0.00 | 87 | 1016.1 |
| 20260905192519 | 73 | 150 | 3.0 | 7.0 | 0.00 | 0.00 | 0.00 | 90 | 1016.0 |
| 20260905191519 | 73 | 157 | 2.0 | 4.0 | 0.00 | 0.00 | 0.00 | 90 | 1016.1 |
| 20260905190519 | 73 | 154 | 3.0 | 4.0 | 0.00 | 0.00 | 0.00 | 89 | 1016.1 |
| 20260905185519 | 73 | 154 | 2.0 | 7.0 | 0.00 | 0.00 | 0.00 | 88 | 1016.0 |
| 20260905184539 | 73 | 162 | 4.0 | 7.0 | 0.00 | 0.00 | 0.00 | 87 | 1016.0 |
| 20260905183531 | 73 | 157 | 4.0 | 7.0 | 0.00 | 0.00 | 0.00 | 86 | 1016.0 |
| 20260905182603 | 73 | 151 | 3.0 | 7.0 | 0.00 | 0.00 | 0.00 | 87 | 1016.1 |
| 20260905181519 | 73 | 159 | 2.0 | 4.0 | 0.00 | 0.00 | 0.00 | 87 | 1016.1 |
| 20260905180519 | 73 | 154 | 2.0 | 7.0 | 0.00 | 0.00 | 0.00 | 87 | 1016.1 |
| 20260905175519 | 73 | 164 | 2.0 | 4.0 | 0.00 | 0.00 | 0.00 | 87 | 1015.9 |
| 20260905174559 | 73 | 148 | 3.0 | 4.0 | 0.00 | 0.00 | 0.00 | 87 | 1015.9 |
| 20260905173519 | 73 | 173 | 3.0 | 4.0 | 0.00 | 0.00 | 0.00 | 86 | 1015.9 |
| 20260905172519 | 73 | 175 | 2.0 | 4.0 | 0.00 | 0.00 | 0.00 | 86 | 1016.0 |
| 20260905171531 | 73 | 172 | 2.0 | 7.0 | 0.00 | 0.00 | 0.00 | 86 | 1015.9 |
| 20260905170519 | 73 | 166 | 2.0 | 4.0 | 0.00 | 0.00 | 0.00 | 87 | 1015.9 |
| 20260905165519 | 73 | 162 | 2.0 | 7.0 | 0.00 | 0.00 | 0.00 | 88 | 1015.8 |
| 20260905164531 | 73 | 173 | 2.0 | 4.0 | 0.00 | 0.00 | 0.00 | 87 | 1015.7 |
| 20260905163519 | 74 | 165 | 2.0 | 4.0 | 0.00 | 0.00 | 0.00 | 86 | 1015.7 |
| 20260905162519 | 74 | 169 | 2.0 | 4.0 | 0.00 | 0.00 | 0.00 | 86 | 1015.7 |
| 20260905161519 | 74 | 153 | 2.0 | 4.0 | 0.00 | 0.00 | 0.00 | 85 | 1015.7 |
| 20260905160531 | 74 | 160 | 3.0 | 7.0 | 0.00 | 0.00 | 0.00 | 86 | 1015.7 |
| 20260905155519 | 75 | 170 | 3.0 | 7.0 | 0.00 | 0.00 | 0.00 | 86 | 1015.7 |
| 20260905154531 | 75 | 155 | 3.0 | 9.0 | 0.00 | 0.00 | 0.00 | 85 | 1015.7 |
| 20260905153519 | 75 | 149 | 4.0 | 7.0 | 0.00 | 0.00 | 0.00 | 84 | 1015.8 |
| 20260905152519 | 76 | 166 | 5.0 | 11.0 | 0.00 | 0.00 | 0.00 | 83 | 1015.8 |
| 20260905151519 | 77 | 155 | 4.0 | 9.0 | 0.00 | 0.00 | 0.00 | 81 | 1015.8 |
| 20260905150519 | 78 | 160 | 3.0 | 7.0 | 0.00 | 0.00 | 0.00 | 80 | 1015.9 |
| 20260905145519 | 77 | 167 | 5.0 | 9.0 | 0.00 | 0.00 | 0.00 | 81 | 1015.9 |
| 20260905144519 | 77 | 179 | 4.0 | 9.0 | 0.00 | 0.00 | 0.00 | 80 | 1015.9 |
| 20260905143519 | 78 | 169 | 5.0 | 11.0 | 0.00 | 0.00 | 0.00 | 81 | 1016.0 |
| 20260905142531 | 78 | 169 | 5.0 | 9.0 | 0.00 | 0.00 | 0.00 | 80 | 1016.0 |
| 20260905141519 | 77 | 162 | 7.0 | 11.0 | 0.00 | 0.00 | 0.00 | 80 | 1016.0 |
| 20260905140519 | 78 | 170 | 6.0 | 15.0 | 0.00 | 0.00 | 0.00 | 79 | 1016.1 |
| 20260905135519 | 78 | 170 | 5.0 | 9.0 | 0.00 | 0.00 | 0.00 | 77 | 1016.2 |
| 20260905134543 | 79 | 166 | 5.0 | 11.0 | 0.00 | 0.00 | 0.00 | 77 | 1016.2 |
| 20260905133519 | 78 | 164 | 9.0 | 20.0 | 0.00 | 0.00 | 0.00 | 77 | 1016.3 |
| 20260905132519 | 78 | 167 | 6.0 | 20.0 | 0.00 | 0.00 | 0.00 | 76 | 1016.3 |
| 20260905131555 | 79 | 174 | 6.0 | 11.0 | 0.00 | 0.00 | 0.00 | 74 | 1016.4 |
| 20260905130519 | 78 | 168 | 8.0 | 15.0 | 0.00 | 0.00 | 0.00 | 74 | 1016.5 |
| 20260905125519 | 79 | 161 | 6.0 | 15.0 | 0.00 | 0.00 | 0.00 | 73 | 1016.6 |
| 20260905124531 | 79 | 180 | 6.0 | 15.0 | 0.00 | 0.00 | 0.00 | 72 | 1016.7 |
| 20260905123519 | 79 | 174 | 6.0 | 15.0 | 0.00 | 0.00 | 0.00 | 71 | 1016.8 |
| 20260905122519 | 79 | 169 | 6.0 | 17.0 | 0.00 | 0.00 | 0.00 | 68 | 1016.8 |
| 20260905121520 | 79 | 185 | 5.0 | 15.0 | 0.00 | 0.00 | 0.00 | 72 | 1017.0 |
| 20260905120519 | 79 | 170 | 5.0 | 15.0 | 0.00 | 0.00 | 0.00 | 75 | 1017.1 |
| 20260905115519 | 78 | 154 | 5.0 | 11.0 | 0.00 | 0.00 | 0.00 | 77 | 1017.2 |
| 20260905114539 | 79 | 168 | 5.0 | 15.0 | 0.00 | 0.00 | 0.00 | 76 | 1017.3 |
| 20260905113519 | 78 | 127 | 3.0 | 9.0 | 0.00 | 0.02 | 0.00 | 76 | 1017.4 |
| 20260905112519 | 78 | 144 | 5.0 | 17.0 | 0.00 | 0.08 | 0.00 | 76 | 1017.5 |
| 20260905111519 | 78 | 194 | 5.0 | 9.0 | 0.00 | 0.08 | 0.00 | 73 | 1017.6 |
| 20260905110520 | 78 | 168 | 6.0 | 17.0 | 0.00 | 0.08 | 0.00 | 71 | 1017.6 |
| 20260905105519 | 78 | 183 | 8.0 | 15.0 | 0.00 | 0.08 | 0.00 | 71 | 1017.6 |
| 20260905104531 | 78 | 155 | 5.0 | 11.0 | 0.00 | 0.08 | 0.00 | 73 | 1017.6 |
| 20260905103555 | 78 | 146 | 6.0 | 15.0 | 0.00 | 0.08 | 0.00 | 73 | 1017.7 |
| 20260905102531 | 79 | 128 | 4.0 | 9.0 | 0.00 | 0.08 | 0.00 | 70 | 1017.7 |
| 20260905101519 | 80 | 146 | 4.0 | 9.0 | 0.00 | 0.08 | 0.00 | 65 | 1017.8 |
| 20260905100533 | 79 | 122 | 4.0 | 9.0 | 0.00 | 0.08 | 0.00 | 67 | 1017.8 |
| 20260905095519 | 80 | 171 | 4.0 | 11.0 | 0.00 | 0.08 | 0.00 | 64 | 1017.8 |
| 20260905094531 | 80 | 187 | 4.0 | 9.0 | 0.00 | 0.08 | 0.00 | 63 | 1017.9 |
| 20260905093539 | 79 | 192 | 4.0 | 9.0 | 0.00 | 0.08 | 0.00 | 67 | 1017.9 |
| 20260905092539 | 80 | 196 | 5.0 | 9.0 | 0.00 | 0.08 | 0.00 | 65 | 1017.9 |
| 20260905091519 | 79 | 134 | 4.0 | 11.0 | 0.00 | 0.08 | 0.00 | 66 | 1018.0 |
| 20260905090519 | 80 | 122 | 4.0 | 11.0 | 0.00 | 0.08 | 0.00 | 60 | 1018.1 |
| 20260905085519 | 81 | 163 | 4.0 | 9.0 | 0.00 | 0.08 | 0.00 | 52 | 1018.1 |
| 20260905084519 | 81 | 129 | 0.0 | 7.0 | 0.00 | 0.08 | 0.00 | 52 | 1018.0 |
| 20260905083519 | 80 | 128 | 3.0 | 9.0 | 0.00 | 0.08 | 0.00 | 53 | 1018.1 |
| 20260905082519 | 81 | 0.0 | 0.0 | 0.00 | 0.08 | 0.00 | 54 | 1018.0 | |
| 20260905081531 | 81 | 0.0 | 0.0 | 0.00 | 0.08 | 0.00 | 52 | 1018.0 | |
| 20260905080519 | 81 | 126 | 1.0 | 7.0 | 0.00 | 0.08 | 0.00 | 54 | 1018.0 |
| 20260905075519 | 81 | 0.0 | 0.0 | 0.00 | 0.08 | 0.00 | 51 | 1018.0 | |
| 20260905074551 | 82 | 0.0 | 0.0 | 0.00 | 0.08 | 0.00 | 55 | 1017.9 | |
| 20260905073551 | 81 | 0.0 | 0.0 | 0.00 | 0.08 | 0.00 | 55 | 1018.0 | |
| 20260905072519 | 81 | 0.0 | 0.0 | 0.00 | 0.08 | 0.00 | 54 | 1017.9 | |
| 20260905071519 | 81 | 0.0 | 0.0 | 0.00 | 0.08 | 0.00 | 54 | 1017.9 | |
| 20260905070519 | 81 | 0.0 | 0.0 | 0.00 | 0.08 | 0.00 | 52 | 1017.9 | |
| 20260905065519 | 81 | 0.0 | 0.0 | 0.00 | 0.08 | 0.00 | 52 | 1017.9 | |
| 20260905064539 | 80 | 165 | 1.0 | 4.0 | 0.00 | 0.08 | 0.00 | 52 | 1017.8 |
| 20260905063519 | 80 | 161 | 1.0 | 4.0 | 0.00 | 0.08 | 0.00 | 52 | 1017.8 |
| 20260905062543 | 81 | 135 | 0.0 | 2.0 | 0.00 | 0.08 | 0.00 | 52 | 1017.8 |
| 20260905061519 | 80 | 163 | 1.0 | 4.0 | 0.00 | 0.08 | 0.00 | 52 | 1017.7 |
| 20260905060519 | 81 | 179 | 0.0 | 2.0 | 0.00 | 0.08 | 0.00 | 52 | 1017.7 |
| 20260905055519 | 81 | 178 | 1.0 | 4.0 | 0.00 | 0.08 | 0.00 | 51 | 1017.7 |
| 20260905054531 | 80 | 248 | 1.0 | 2.0 | 0.00 | 0.08 | 0.00 | 52 | 1017.7 |
| 20260905053539 | 80 | 248 | 0.0 | 2.0 | 0.00 | 0.08 | 0.00 | 55 | 1017.6 |
| 20260905052519 | 82 | 248 | 1.0 | 2.0 | 0.00 | 0.08 | 0.00 | 51 | 1017.6 |
| 20260905051519 | 80 | 248 | 0.0 | 2.0 | 0.00 | 0.08 | 0.00 | 55 | 1017.7 |
| 20260905050519 | 80 | 0.0 | 0.0 | 0.00 | 0.08 | 0.00 | 57 | 1017.7 | |
| 20260905045539 | 77 | 0.0 | 0.0 | 0.00 | 0.08 | 0.00 | 59 | 1017.7 | |
| 20260905044531 | 82 | 0.0 | 0.0 | 0.00 | 0.08 | 0.00 | 52 | 1017.6 | |
| 20260905043519 | 79 | 0.0 | 0.0 | 0.00 | 0.08 | 0.00 | 64 | 1017.6 | |
| 20260905042519 | 74 | 0.0 | 0.0 | 0.00 | 0.08 | 0.00 | 71 | 1017.4 | |
| 20260905041519 | 69 | 0.0 | 0.0 | 0.00 | 0.08 | 0.00 | 75 | 1017.3 | |
| 20260905040519 | 67 | 0.0 | 0.0 | 0.00 | 0.08 | 0.00 | 79 | 1017.3 | |
| 20260905035519 | 66 | 0.0 | 0.0 | 0.00 | 0.08 | 0.00 | 81 | 1017.3 | |
| 20260905034519 | 65 | 0.0 | 0.0 | 0.00 | 0.08 | 0.00 | 80 | 1017.3 | |
| 20260905033519 | 64 | 0.0 | 0.0 | 0.00 | 0.08 | 0.00 | 82 | 1017.3 | |
| 20260905032539 | 64 | 0.0 | 0.0 | 0.00 | 0.08 | 0.00 | 83 | 1017.2 | |
| 20260905031519 | 63 | 0.0 | 0.0 | 0.00 | 0.08 | 0.00 | 86 | 1017.2 | |
| 20260905030519 | 62 | 0.0 | 0.0 | 0.00 | 0.08 | 0.00 | 91 | 1017.1 | |
| 20260905025519 | 63 | 0.0 | 0.0 | 0.00 | 0.08 | 0.00 | 90 | 1017.1 | |
| 20260905024519 | 64 | 0.0 | 0.0 | 0.00 | 0.08 | 0.00 | 86 | 1017.1 | |
| 20260905023519 | 65 | 0.0 | 0.0 | 0.00 | 0.08 | 0.00 | 77 | 1017.1 | |
| 20260905022531 | 65 | 0.0 | 0.0 | 0.00 | 0.08 | 0.00 | 72 | 1017.1 | |
| 20260905021519 | 66 | 0.0 | 0.0 | 0.00 | 0.08 | 0.00 | 74 | 1017.1 | |
| 20260905020531 | 67 | 0.0 | 0.0 | 0.00 | 0.08 | 0.00 | 68 | 1017.2 | |
| 20260905015519 | 68 | 248 | 0.0 | 2.0 | 0.00 | 0.08 | 0.00 | 65 | 1017.2 |
| 20260905014551 | 69 | 248 | 0.0 | 2.0 | 0.00 | 0.08 | 0.00 | 65 | 1017.1 |
| 20260905013519 | 70 | 248 | 1.0 | 2.0 | 0.00 | 0.08 | 0.00 | 61 | 1017.1 |
| 20260905012519 | 70 | 247 | 2.0 | 2.0 | 0.00 | 0.08 | 0.00 | 61 | 1017.0 |
| 20260905011539 | 69 | 248 | 2.0 | 4.0 | 0.00 | 0.08 | 0.00 | 64 | 1017.1 |
| 20260905010539 | 69 | 248 | 2.0 | 4.0 | 0.00 | 0.08 | 0.00 | 65 | 1017.2 |
| 20260905005543 | 69 | 244 | 2.0 | 4.0 | 0.00 | 0.08 | 0.00 | 67 | 1017.2 |
| 20260905004519 | 69 | 245 | 3.0 | 4.0 | 0.00 | 0.08 | 0.00 | 67 | 1017.3 |
| 20260905003531 | 69 | 252 | 3.0 | 7.0 | 0.00 | 0.08 | 0.00 | 68 | 1017.2 |
| 20260905002519 | 69 | 248 | 2.0 | 4.0 | 0.00 | 0.08 | 0.00 | 71 | 1017.3 |
| 20260905001519 | 69 | 247 | 2.0 | 4.0 | 0.00 | 0.08 | 0.00 | 73 | 1017.3 |
| 20260905000539 | 69 | 247 | 2.0 | 7.0 | 0.00 | 0.08 | 0.00 | 75 | 1017.3 |
| 20260904235519 | 68 | 248 | 2.0 | 4.0 | 0.00 | 0.08 | 0.00 | 80 | 1017.3 |